Time,TemperatureF,DewpointF,PressureIn,WindDirection,WindDirectionDegrees,WindSpeedMPH,WindSpeedGustMPH,Humidity,HourlyPrecipIn,Conditions,Clouds,dailyrainin,SoftwareType,DateUTC
2013-09-09 00:01:00,75.0,71.6,29.95,South,180,0.0,0.0,89,0.00,CLR,,0.00,WeatherDisplay:10.37,2013-09-09 05:01:00,
2013-09-09 00:06:00,75.0,71.6,29.95,South,180,0.0,0.0,89,0.00,CLR,,0.00,WeatherDisplay:10.37,2013-09-09 05:06:00,
2013-09-09 00:11:00,74.7,71.2,29.96,South,180,0.0,0.0,89,0.00,CLR,,0.00,WeatherDisplay:10.37,2013-09-09 05:11:00,
2013-09-09 00:16:00,74.7,71.2,29.96,South,180,0.0,0.0,89,0.00,CLR,,0.00,WeatherDisplay:10.37,2013-09-09 05:16:00,
2013-09-09 00:21:00,74.5,71.0,29.95,South,180,0.0,0.0,89,0.00,CLR,,0.00,WeatherDisplay:10.37,2013-09-09 05:21:00,
2013-09-09 00:26:00,74.5,71.0,29.95,South,180,0.0,0.0,89,0.00,CLR,,0.00,WeatherDisplay:10.37,2013-09-09 05:26:00,
2013-09-09 00:31:00,74.5,71.0,29.95,South,180,0.0,0.0,89,0.00,CLR,,0.00,WeatherDisplay:10.37,2013-09-09 05:31:00,
2013-09-09 00:36:00,74.5,71.0,29.95,South,180,0.0,0.0,89,0.00,CLR,,0.00,WeatherDisplay:10.37,2013-09-09 05:36:00,
2013-09-09 00:41:00,74.3,70.8,29.95,South,180,0.0,0.0,89,0.00,CLR,,0.00,WeatherDisplay:10.37,2013-09-09 05:41:00,
2013-09-09 00:46:00,74.1,70.7,29.95,South,180,0.0,0.0,89,0.00,CLR,,0.00,WeatherDisplay:10.37,2013-09-09 05:46:00,
2013-09-09 00:51:00,73.9,70.5,29.95,South,180,0.0,0.0,89,0.00,CLR,,0.00,WeatherDisplay:10.37,2013-09-09 05:51:00,
2013-09-09 00:56:00,73.9,70.5,29.95,South,180,0.0,0.0,89,0.00,CLR,,0.00,WeatherDisplay:10.37,2013-09-09 05:56:00,
2013-09-09 01:01:00,73.9,70.5,29.95,South,180,0.0,0.0,89,0.00,CLR,,0.00,WeatherDisplay:10.37,2013-09-09 06:01:00,
2013-09-09 01:06:00,73.9,70.5,29.95,South,180,0.0,0.0,89,0.00,CLR,,0.00,WeatherDisplay:10.37,2013-09-09 06:06:00,
2013-09-09 01:11:00,73.8,70.6,29.95,South,180,0.0,0.0,90,0.00,CLR,,0.00,WeatherDisplay:10.37,2013-09-09 06:11:00,
2013-09-09 01:16:00,73.8,70.3,29.95,South,180,0.0,0.0,89,0.00,CLR,,0.00,WeatherDisplay:10.37,2013-09-09 06:16:00,
2013-09-09 01:21:00,73.8,70.6,29.95,South,180,0.0,0.0,90,0.00,CLR,,0.00,WeatherDisplay:10.37,2013-09-09 06:21:00,
2013-09-09 01:26:00,73.6,70.5,29.95,South,180,0.0,0.0,90,0.00,CLR,,0.00,WeatherDisplay:10.37,2013-09-09 06:26:00,
2013-09-09 01:31:00,73.4,70.3,29.95,South,180,0.0,0.0,90,0.00,CLR,,0.00,WeatherDisplay:10.37,2013-09-09 06:31:00,
2013-09-09 01:36:00,73.2,70.1,29.95,South,180,0.0,0.0,90,0.00,CLR,,0.00,WeatherDisplay:10.37,2013-09-09 06:36:00,
2013-09-09 01:41:00,73.2,70.1,29.95,South,180,0.0,0.0,90,0.00,CLR,,0.00,WeatherDisplay:10.37,2013-09-09 06:41:00,
2013-09-09 01:46:00,73.2,70.1,29.95,South,180,0.0,0.0,90,0.00,CLR,,0.00,WeatherDisplay:10.37,2013-09-09 06:46:00,
2013-09-09 01:51:00,73.2,70.1,29.95,South,180,0.0,0.0,90,0.00,CLR,,0.00,WeatherDisplay:10.37,2013-09-09 06:51:00,
2013-09-09 01:56:00,73.2,70.1,29.94,South,180,0.0,0.0,90,0.00,CLR,,0.00,WeatherDisplay:10.37,2013-09-09 06:56:00,
2013-09-09 02:01:00,73.2,70.1,29.94,South,180,0.0,0.0,90,0.00,CLR,,0.00,WeatherDisplay:10.37,2013-09-09 07:01:00,
2013-09-09 02:06:00,73.0,69.9,29.95,South,180,0.0,0.0,90,0.00,CLR,,0.00,WeatherDisplay:10.37,2013-09-09 07:06:00,
2013-09-09 02:11:00,72.9,69.8,29.95,South,180,0.0,0.0,90,0.00,CLR,,0.00,WeatherDisplay:10.37,2013-09-09 07:11:00,
2013-09-09 02:16:00,72.7,69.6,29.95,South,180,0.0,0.0,90,0.00,CLR,,0.00,WeatherDisplay:10.37,2013-09-09 07:16:00,
2013-09-09 02:21:00,72.7,69.6,29.95,South,180,0.0,0.0,90,0.00,CLR,,0.00,WeatherDisplay:10.37,2013-09-09 07:21:00,
2013-09-09 02:26:00,72.7,69.6,29.94,South,180,0.0,0.0,90,0.00,CLR,,0.00,WeatherDisplay:10.37,2013-09-09 07:26:00,
2013-09-09 02:31:00,72.7,69.6,29.95,South,180,0.0,0.0,90,0.00,CLR,,0.00,WeatherDisplay:10.37,2013-09-09 07:31:00,
2013-09-09 02:36:00,72.7,69.6,29.95,South,180,0.0,0.0,90,0.00,CLR,,0.00,WeatherDisplay:10.37,2013-09-09 07:36:00,
2013-09-09 02:41:00,72.7,69.6,29.95,South,180,0.0,0.0,90,0.00,CLR,,0.00,WeatherDisplay:10.37,2013-09-09 07:41:00,
2013-09-09 02:46:00,72.5,69.4,29.95,South,180,0.0,0.0,90,0.00,CLR,,0.00,WeatherDisplay:10.37,2013-09-09 07:46:00,
2013-09-09 02:51:00,72.3,69.2,29.95,South,180,0.0,0.0,90,0.00,CLR,,0.00,WeatherDisplay:10.37,2013-09-09 07:51:00,
2013-09-09 02:56:00,72.3,69.2,29.95,South,180,0.0,0.0,90,0.00,CLR,,0.00,WeatherDisplay:10.37,2013-09-09 07:56:00,
2013-09-09 03:01:00,72.3,69.2,29.95,South,180,0.0,0.0,90,0.00,CLR,,0.00,WeatherDisplay:10.37,2013-09-09 08:01:00,
2013-09-09 03:06:00,72.3,69.2,29.95,South,180,0.0,0.0,90,0.00,CLR,,0.00,WeatherDisplay:10.37,2013-09-09 08:06:00,
2013-09-09 03:11:00,72.3,69.2,29.96,South,180,0.0,0.0,90,0.00,CLR,,0.00,WeatherDisplay:10.37,2013-09-09 08:11:00,
2013-09-09 03:16:00,72.3,69.5,29.95,South,180,0.0,0.0,91,0.00,CLR,,0.00,WeatherDisplay:10.37,2013-09-09 08:16:00,
2013-09-09 03:21:00,72.3,69.5,29.95,South,180,0.0,0.0,91,0.00,CLR,,0.00,WeatherDisplay:10.37,2013-09-09 08:21:00,
2013-09-09 03:26:00,72.3,69.5,29.96,South,180,0.0,0.0,91,0.00,CLR,,0.00,WeatherDisplay:10.37,2013-09-09 08:26:00,
2013-09-09 03:31:00,72.3,69.5,29.96,South,180,0.0,0.0,91,0.00,CLR,,0.00,WeatherDisplay:10.37,2013-09-09 08:31:00,
2013-09-09 03:36:00,72.3,69.5,29.95,South,180,0.0,0.0,91,0.00,CLR,,0.00,WeatherDisplay:10.37,2013-09-09 08:36:00,
2013-09-09 03:41:00,72.3,69.5,29.96,South,180,0.0,0.0,91,0.00,CLR,,0.00,WeatherDisplay:10.37,2013-09-09 08:41:00,
2013-09-09 03:46:00,72.1,69.4,29.95,South,180,0.0,0.0,91,0.00,CLR,,0.00,WeatherDisplay:10.37,2013-09-09 08:46:00,
2013-09-09 03:51:00,72.1,69.4,29.95,South,180,0.0,0.0,91,0.00,CLR,,0.00,WeatherDisplay:10.37,2013-09-09 08:51:00,
2013-09-09 03:56:00,72.1,69.4,29.95,South,180,0.0,0.0,91,0.00,CLR,,0.00,WeatherDisplay:10.37,2013-09-09 08:56:00,
2013-09-09 04:01:00,72.1,69.4,29.95,South,180,0.0,0.0,91,0.00,CLR,,0.00,WeatherDisplay:10.37,2013-09-09 09:01:00,
2013-09-09 04:06:00,72.1,69.4,29.95,South,180,0.0,0.0,91,0.00,CLR,,0.00,WeatherDisplay:10.37,2013-09-09 09:06:00,
2013-09-09 04:11:00,72.1,69.4,29.95,South,180,0.0,0.0,91,0.00,CLR,,0.00,WeatherDisplay:10.37,2013-09-09 09:11:00,
2013-09-09 04:16:00,72.1,69.4,29.96,South,180,0.0,0.0,91,0.00,CLR,,0.00,WeatherDisplay:10.37,2013-09-09 09:16:00,
2013-09-09 04:21:00,72.1,69.4,29.96,South,180,0.0,0.0,91,0.00,CLR,,0.00,WeatherDisplay:10.37,2013-09-09 09:21:00,
2013-09-09 04:26:00,72.1,69.4,29.96,South,180,0.0,0.0,91,0.00,CLR,,0.00,WeatherDisplay:10.37,2013-09-09 09:26:00,
2013-09-09 04:31:00,72.1,69.4,29.96,South,180,0.0,0.0,91,0.00,CLR,,0.00,WeatherDisplay:10.37,2013-09-09 09:31:00,
2013-09-09 04:36:00,72.1,69.4,29.96,South,180,0.0,0.0,91,0.00,CLR,,0.00,WeatherDisplay:10.37,2013-09-09 09:36:00,
2013-09-09 04:41:00,72.1,69.4,29.96,South,180,0.0,0.0,91,0.00,CLR,,0.00,WeatherDisplay:10.37,2013-09-09 09:41:00,
2013-09-09 04:46:00,72.1,69.4,29.96,South,180,0.0,0.0,91,0.00,CLR,,0.00,WeatherDisplay:10.37,2013-09-09 09:46:00,
2013-09-09 04:51:00,72.0,69.2,29.97,South,180,0.0,0.0,91,0.00,CLR,,0.00,WeatherDisplay:10.37,2013-09-09 09:51:00,
2013-09-09 04:56:00,72.0,69.2,29.97,South,180,0.0,0.0,91,0.00,CLR,,0.00,WeatherDisplay:10.37,2013-09-09 09:56:00,
2013-09-09 05:01:00,71.8,69.0,29.97,South,180,0.0,0.0,91,0.00,CLR,,0.00,WeatherDisplay:10.37,2013-09-09 10:01:00,
2013-09-09 05:06:00,71.8,69.0,29.97,South,180,0.0,0.0,91,0.00,CLR,,0.00,WeatherDisplay:10.37,2013-09-09 10:06:00,
2013-09-09 05:11:00,71.8,69.0,29.97,South,180,0.0,0.0,91,0.00,CLR,,0.00,WeatherDisplay:10.37,2013-09-09 10:11:00,
2013-09-09 05:16:00,71.4,68.3,29.97,South,180,0.0,0.0,90,0.00,CLR,,0.00,WeatherDisplay:10.37,2013-09-09 10:16:00,
2013-09-09 05:21:00,71.4,68.3,29.97,South,180,0.0,0.0,90,0.00,CLR,,0.00,WeatherDisplay:10.37,2013-09-09 10:21:00,
2013-09-09 05:26:00,71.4,68.3,29.98,South,180,0.0,0.0,90,0.00,CLR,,0.00,WeatherDisplay:10.37,2013-09-09 10:26:00,
2013-09-09 05:31:00,71.2,68.2,29.97,South,180,0.0,0.0,90,0.00,CLR,,0.00,WeatherDisplay:10.37,2013-09-09 10:31:00,
2013-09-09 05:36:00,71.4,68.3,29.97,South,180,0.0,0.0,90,0.00,CLR,,0.00,WeatherDisplay:10.37,2013-09-09 10:36:00,
2013-09-09 05:41:00,71.2,68.2,29.97,South,180,0.0,0.0,90,0.00,CLR,,0.00,WeatherDisplay:10.37,2013-09-09 10:41:00,
2013-09-09 05:46:00,71.2,68.2,29.98,South,180,0.0,0.0,90,0.00,CLR,,0.00,WeatherDisplay:10.37,2013-09-09 10:46:00,
2013-09-09 05:51:00,70.9,67.8,29.98,South,180,0.0,0.0,90,0.00,CLR,,0.00,WeatherDisplay:10.37,2013-09-09 10:51:00,
2013-09-09 05:56:00,70.9,67.8,29.98,South,180,0.0,0.0,90,0.00,CLR,,0.00,WeatherDisplay:10.37,2013-09-09 10:56:00,
2013-09-09 06:01:00,70.9,67.8,29.98,South,180,0.0,0.0,90,0.00,CLR,,0.00,WeatherDisplay:10.37,2013-09-09 11:01:00,
2013-09-09 06:06:00,70.9,68.1,29.98,South,180,0.0,0.0,91,0.00,CLR,,0.00,WeatherDisplay:10.37,2013-09-09 11:06:00,
2013-09-09 06:11:00,70.7,67.9,29.98,South,180,0.0,0.0,91,0.00,CLR,,0.00,WeatherDisplay:10.37,2013-09-09 11:11:00,
2013-09-09 06:16:00,70.7,67.6,29.98,South,180,0.0,0.0,90,0.00,CLR,,0.00,WeatherDisplay:10.37,2013-09-09 11:16:00,
2013-09-09 06:21:00,70.5,67.8,29.99,South,180,0.0,0.0,91,0.00,CLR,,0.00,WeatherDisplay:10.37,2013-09-09 11:21:00,
2013-09-09 06:26:00,70.5,67.8,29.99,South,180,0.0,0.0,91,0.00,CLR,,0.00,WeatherDisplay:10.37,2013-09-09 11:26:00,
2013-09-09 06:31:00,70.5,67.8,29.99,South,180,0.0,0.0,91,0.00,CLR,,0.00,WeatherDisplay:10.37,2013-09-09 11:31:00,
2013-09-09 06:36:00,70.5,67.8,29.99,South,180,0.0,0.0,91,0.00,CLR,,0.00,WeatherDisplay:10.37,2013-09-09 11:36:00,
2013-09-09 06:41:00,70.7,67.9,29.99,South,180,0.0,0.0,91,0.00,CLR,,0.00,WeatherDisplay:10.37,2013-09-09 11:41:00,
2013-09-09 06:46:00,70.7,67.9,29.99,South,180,0.0,0.0,91,0.00,CLR,,0.00,WeatherDisplay:10.37,2013-09-09 11:46:00,
2013-09-09 06:51:00,70.5,67.4,29.99,South,180,0.0,0.0,90,0.00,CLR,,0.00,WeatherDisplay:10.37,2013-09-09 11:51:00,
2013-09-09 06:56:00,70.5,67.4,29.99,South,180,0.0,0.0,90,0.00,CLR,,0.00,WeatherDisplay:10.37,2013-09-09 11:56:00,
2013-09-09 07:01:00,70.5,67.8,29.99,South,180,0.0,0.0,91,0.00,CLR,,0.00,WeatherDisplay:10.37,2013-09-09 12:01:00,
2013-09-09 07:06:00,70.7,67.9,29.99,South,180,0.0,0.0,91,0.00,CLR,,0.00,WeatherDisplay:10.37,2013-09-09 12:06:00,
2013-09-09 07:11:00,70.9,68.1,29.99,South,180,0.0,0.0,91,0.00,CLR,,0.00,WeatherDisplay:10.37,2013-09-09 12:11:00,
2013-09-09 07:16:00,71.4,68.7,29.99,South,180,0.0,0.0,91,0.00,CLR,,0.00,WeatherDisplay:10.37,2013-09-09 12:16:00,
2013-09-09 07:21:00,71.4,68.7,29.99,South,180,0.0,0.0,91,0.00,CLR,,0.00,WeatherDisplay:10.37,2013-09-09 12:21:00,
2013-09-09 07:26:00,71.8,69.0,29.99,South,180,0.0,0.0,91,0.00,CLR,,0.00,WeatherDisplay:10.37,2013-09-09 12:26:00,
2013-09-09 07:31:00,72.0,69.2,29.99,South,180,0.0,0.0,91,0.00,CLR,,0.00,WeatherDisplay:10.37,2013-09-09 12:31:00,
2013-09-09 07:36:00,72.7,69.9,30.00,South,180,0.0,0.0,91,0.00,CLR,,0.00,WeatherDisplay:10.37,2013-09-09 12:36:00,
2013-09-09 07:41:00,73.0,70.3,30.00,South,180,0.0,0.0,91,0.00,CLR,,0.00,WeatherDisplay:10.37,2013-09-09 12:41:00,
2013-09-09 07:46:00,73.6,70.8,30.00,South,180,0.0,0.0,91,0.00,CLR,,0.00,WeatherDisplay:10.37,2013-09-09 12:46:00,
2013-09-09 07:51:00,73.9,71.1,30.00,South,180,0.0,0.0,91,0.00,CLR,,0.00,WeatherDisplay:10.37,2013-09-09 12:51:00,
2013-09-09 07:57:00,74.5,71.7,30.00,South,180,0.0,0.0,91,0.00,CLR,,0.00,WeatherDisplay:10.37,2013-09-09 12:57:00,
2013-09-09 08:02:00,75.0,71.9,30.00,South,180,0.0,0.0,90,0.00,CLR,,0.00,WeatherDisplay:10.37,2013-09-09 13:02:00,
2013-09-09 08:07:00,75.2,72.1,30.00,East,90,0.0,0.0,90,0.00,CLR,,0.00,WeatherDisplay:10.37,2013-09-09 13:07:00,
2013-09-09 08:12:00,75.6,72.4,30.01,East,90,0.0,0.0,90,0.00,CLR,,0.00,WeatherDisplay:10.37,2013-09-09 13:12:00,
2013-09-09 08:17:00,75.7,72.6,30.01,East,90,0.0,0.0,90,0.00,CLR,,0.00,WeatherDisplay:10.37,2013-09-09 13:17:00,
2013-09-09 08:22:00,75.9,72.8,30.01,East,90,0.0,0.0,90,0.00,CLR,,0.00,WeatherDisplay:10.37,2013-09-09 13:22:00,
2013-09-09 08:27:00,76.3,73.1,30.01,East,90,0.0,0.0,90,0.00,CLR,,0.00,WeatherDisplay:10.37,2013-09-09 13:27:00,
2013-09-09 08:32:00,76.8,73.7,30.01,East,90,0.0,0.0,90,0.00,CLR,,0.00,WeatherDisplay:10.37,2013-09-09 13:32:00,
2013-09-09 08:37:00,77.4,74.2,30.01,East,90,0.0,0.0,90,0.00,CLR,,0.00,WeatherDisplay:10.37,2013-09-09 13:37:00,
2013-09-09 08:42:00,78.1,74.9,30.01,East,90,0.0,0.0,90,0.00,CLR,,0.00,WeatherDisplay:10.37,2013-09-09 13:42:00,
2013-09-09 08:47:00,78.4,74.9,30.02,East,90,0.0,0.0,89,0.00,CLR,,0.00,WeatherDisplay:10.37,2013-09-09 13:47:00,
2013-09-09 08:52:00,78.6,75.1,30.02,East,90,4.6,8.8,89,0.00,CLR,,0.00,WeatherDisplay:10.37,2013-09-09 13:52:00,
2013-09-09 08:57:00,79.3,75.5,30.02,East,90,5.3,5.3,88,0.00,CLR,,0.00,WeatherDisplay:10.37,2013-09-09 13:57:00,
2013-09-09 09:02:00,79.7,75.8,30.02,ENE,68,7.1,12.1,88,0.00,CLR,,0.00,WeatherDisplay:10.37,2013-09-09 14:02:00,
2013-09-09 09:07:00,80.2,76.0,30.02,ENE,68,5.8,6.0,87,0.00,CLR,,0.00,WeatherDisplay:10.37,2013-09-09 14:07:00,
2013-09-09 09:12:00,80.4,75.8,30.02,ENE,68,7.5,7.5,86,0.00,CLR,,0.00,WeatherDisplay:10.37,2013-09-09 14:12:00,
2013-09-09 09:17:00,81.0,76.0,30.02,ENE,68,7.1,7.9,85,0.00,CLR,,0.00,WeatherDisplay:10.37,2013-09-09 14:17:00,
2013-09-09 09:22:00,81.1,75.5,30.02,ENE,68,5.8,9.3,83,0.00,CLR,,0.00,WeatherDisplay:10.37,2013-09-09 14:22:00,
2013-09-09 09:27:00,81.3,75.7,30.03,ENE,68,3.5,7.0,83,0.00,CLR,,0.00,WeatherDisplay:10.37,2013-09-09 14:27:00,
2013-09-09 09:32:00,81.7,76.0,30.02,NNE,22,2.7,2.7,83,0.00,CLR,,0.00,WeatherDisplay:10.37,2013-09-09 14:32:00,
2013-09-09 09:37:00,82.0,76.0,30.02,NE,45,1.3,2.6,82,0.00,CLR,,0.00,WeatherDisplay:10.37,2013-09-09 14:37:00,
2013-09-09 09:42:00,82.4,76.0,30.02,ENE,68,6.2,12.3,81,0.00,CLR,,0.00,WeatherDisplay:10.37,2013-09-09 14:42:00,
2013-09-09 09:47:00,82.6,76.2,30.02,ENE,68,8.1,12.8,81,0.00,CLR,,0.00,WeatherDisplay:10.37,2013-09-09 14:47:00,
2013-09-09 09:52:00,82.9,75.8,30.02,ENE,68,8.1,12.3,79,0.00,CLR,,0.00,WeatherDisplay:10.37,2013-09-09 14:52:00,
2013-09-09 09:57:00,83.1,75.9,30.02,ENE,68,10.4,13.8,79,0.00,CLR,,0.00,WeatherDisplay:10.37,2013-09-09 14:57:00,
2013-09-09 10:02:00,83.3,75.7,30.02,ENE,68,9.3,15.0,78,0.00,CLR,,0.00,WeatherDisplay:10.37,2013-09-09 15:02:00,
2013-09-09 10:07:00,83.5,75.9,30.02,NE,45,4.0,7.9,78,0.00,CLR,,0.00,WeatherDisplay:10.37,2013-09-09 15:07:00,
2013-09-09 10:12:00,83.8,75.9,30.02,ENE,68,6.2,12.3,77,0.00,CLR,,0.00,WeatherDisplay:10.37,2013-09-09 15:12:00,
2013-09-09 10:17:00,84.0,76.0,30.02,ENE,68,14.6,25.3,77,0.00,CLR,,0.00,WeatherDisplay:10.37,2013-09-09 15:17:00,
2013-09-09 10:22:00,84.0,75.6,30.02,ENE,68,11.5,11.5,76,0.00,CLR,,0.00,WeatherDisplay:10.37,2013-09-09 15:22:00,
2013-09-09 10:27:00,84.0,75.6,30.02,ENE,68,4.6,8.8,76,0.00,CLR,,0.00,WeatherDisplay:10.37,2013-09-09 15:27:00,
2013-09-09 10:32:00,84.4,75.6,30.02,North,0,0.0,0.0,75,0.00,CLR,,0.00,WeatherDisplay:10.37,2013-09-09 15:32:00,
2013-09-09 10:37:00,84.6,75.8,30.02,ENE,68,4.6,8.2,75,0.00,CLR,,0.00,WeatherDisplay:10.37,2013-09-09 15:37:00,
2013-09-09 10:42:00,84.7,75.5,30.02,ENE,68,3.5,5.9,74,0.00,CLR,,0.00,WeatherDisplay:10.37,2013-09-09 15:42:00,
2013-09-09 10:47:00,84.7,75.9,30.02,ENE,68,10.4,14.3,75,0.00,CLR,,0.00,WeatherDisplay:10.37,2013-09-09 15:47:00,
2013-09-09 10:52:00,85.1,75.9,30.02,East,90,3.5,6.1,74,0.00,CLR,,0.00,WeatherDisplay:10.37,2013-09-09 15:52:00,
2013-09-09 10:57:00,85.3,75.6,30.02,SE,135,8.4,8.4,73,0.00,CLR,,0.00,WeatherDisplay:10.37,2013-09-09 15:57:00,
2013-09-09 11:02:00,85.6,76.4,30.02,SSE,158,6.9,6.9,74,0.00,CLR,,0.00,WeatherDisplay:10.37,2013-09-09 16:02:00,
2013-09-09 11:07:00,85.8,76.6,30.02,East,90,4.6,8.8,74,0.00,CLR,,0.00,WeatherDisplay:10.37,2013-09-09 16:07:00,
2013-09-09 11:12:00,85.8,76.2,30.02,ESE,112,1.3,1.3,73,0.00,CLR,,0.00,WeatherDisplay:10.37,2013-09-09 16:12:00,
2013-09-09 11:17:00,86.0,75.5,30.02,East,90,5.8,9.3,71,0.00,CLR,,0.00,WeatherDisplay:10.37,2013-09-09 16:17:00,
2013-09-09 11:22:00,86.2,75.7,30.02,ENE,68,11.5,22.8,71,0.00,CLR,,0.00,WeatherDisplay:10.37,2013-09-09 16:22:00,
2013-09-09 11:27:00,86.2,74.8,30.02,SE,135,5.8,10.5,69,0.00,CLR,,0.00,WeatherDisplay:10.37,2013-09-09 16:27:00,
2013-09-09 11:32:00,86.2,75.2,30.02,East,90,4.9,6.3,70,0.00,CLR,,0.00,WeatherDisplay:10.37,2013-09-09 16:32:00,
2013-09-09 11:37:00,86.5,76.0,30.02,ENE,68,9.2,17.5,71,0.00,CLR,,0.00,WeatherDisplay:10.37,2013-09-09 16:37:00,
2013-09-09 11:42:00,86.5,75.6,30.02,ENE,68,4.6,8.8,70,0.00,CLR,,0.00,WeatherDisplay:10.37,2013-09-09 16:42:00,
2013-09-09 11:47:00,86.5,74.7,30.02,ESE,112,2.7,2.7,68,0.00,CLR,,0.00,WeatherDisplay:10.37,2013-09-09 16:47:00,
2013-09-09 11:52:00,86.7,75.3,30.02,ENE,68,9.3,18.4,69,0.00,CLR,,0.00,WeatherDisplay:10.37,2013-09-09 16:52:00,
2013-09-09 11:57:00,87.1,75.2,30.02,East,90,8.4,16.6,68,0.00,CLR,,0.00,WeatherDisplay:10.37,2013-09-09 16:57:00,
2013-09-09 12:02:00,87.1,75.2,30.02,SE,135,10.6,21.0,68,0.00,CLR,,0.00,WeatherDisplay:10.37,2013-09-09 17:02:00,
2013-09-09 12:07:00,87.4,75.1,30.02,East,90,7.5,7.5,67,0.00,CLR,,0.00,WeatherDisplay:10.37,2013-09-09 17:07:00,
2013-09-09 12:12:00,87.6,74.4,30.02,SSE,158,6.9,7.8,65,0.00,CLR,,0.00,WeatherDisplay:10.37,2013-09-09 17:12:00,
2013-09-09 12:17:00,87.6,74.4,30.02,SSE,158,11.5,21.9,65,0.00,CLR,,0.00,WeatherDisplay:10.37,2013-09-09 17:17:00,
2013-09-09 12:22:00,87.6,74.4,30.02,SE,135,4.0,5.9,65,0.00,CLR,,0.00,WeatherDisplay:10.37,2013-09-09 17:22:00,
2013-09-09 12:27:00,87.6,74.4,30.02,SSE,158,11.5,21.2,65,0.00,CLR,,0.00,WeatherDisplay:10.37,2013-09-09 17:27:00,
2013-09-09 12:32:00,87.8,74.1,30.02,ESE,112,3.5,5.5,64,0.00,CLR,,0.00,WeatherDisplay:10.37,2013-09-09 17:32:00,
2013-09-09 12:37:00,87.8,74.1,30.02,SE,135,6.2,12.7,64,0.00,CLR,,0.00,WeatherDisplay:10.37,2013-09-09 17:37:00,
2013-09-09 12:42:00,88.0,74.3,30.02,SSE,158,11.9,14.5,64,0.00,CLR,,0.00,WeatherDisplay:10.37,2013-09-09 17:42:00,
2013-09-09 12:47:00,87.8,73.6,30.02,SSE,158,13.8,27.2,63,0.00,CLR,,0.00,WeatherDisplay:10.37,2013-09-09 17:47:00,
2013-09-09 12:52:00,88.2,74.0,30.02,East,90,14.2,28.0,63,0.00,CLR,,0.00,WeatherDisplay:10.37,2013-09-09 17:52:00,
2013-09-09 12:57:00,88.3,74.6,30.02,SSE,158,15.0,15.0,64,0.00,,,0.00,WeatherDisplay:10.37,2013-09-09 17:57:00,
2013-09-09 13:02:00,88.5,74.8,30.01,SSE,158,4.9,9.6,64,0.00,CLR,,0.00,WeatherDisplay:10.37,2013-09-09 18:02:00,
2013-09-09 13:07:00,88.5,74.8,30.01,SSE,158,0.0,0.0,64,0.00,CLR,,0.00,WeatherDisplay:10.37,2013-09-09 18:07:00,
2013-09-09 13:12:00,88.5,74.8,30.01,SSE,158,6.9,8.8,64,0.00,CLR,,0.00,WeatherDisplay:10.37,2013-09-09 18:12:00,
2013-09-09 13:17:00,88.5,74.8,30.01,SSE,158,11.5,21.6,64,0.00,CLR,,0.00,WeatherDisplay:10.37,2013-09-09 18:17:00,
2013-09-09 13:22:00,88.7,74.5,30.01,SSE,158,5.8,11.4,63,0.00,CLR,,0.00,WeatherDisplay:10.37,2013-09-09 18:22:00,
2013-09-09 13:27:00,88.9,75.1,30.00,SSE,158,3.5,7.0,64,0.00,CLR,,0.00,WeatherDisplay:10.37,2013-09-09 18:27:00,
2013-09-09 13:32:00,88.9,74.7,30.00,South,180,4.6,8.8,63,0.00,CLR,,0.00,WeatherDisplay:10.37,2013-09-09 18:32:00,
2013-09-09 13:37:00,89.2,74.5,30.00,SSE,158,7.1,7.1,62,0.00,CLR,,0.00,WeatherDisplay:10.37,2013-09-09 18:37:00,
2013-09-09 13:42:00,88.9,74.2,30.00,ESE,112,9.2,9.2,62,0.00,CLR,,0.00,WeatherDisplay:10.37,2013-09-09 18:42:00,
2013-09-09 13:47:00,88.9,74.2,30.00,SSE,158,10.4,18.9,62,0.00,CLR,,0.00,WeatherDisplay:10.37,2013-09-09 18:47:00,
2013-09-09 13:52:00,88.7,74.0,30.00,SE,135,5.8,10.7,62,0.00,CLR,,0.00,WeatherDisplay:10.37,2013-09-09 18:52:00,
2013-09-09 13:57:00,88.9,74.2,30.00,SSE,158,9.3,17.8,62,0.00,CLR,,0.00,WeatherDisplay:10.37,2013-09-09 18:57:00,
2013-09-09 14:02:00,89.1,73.9,30.00,SSE,158,9.7,19.3,61,0.00,CLR,,0.00,WeatherDisplay:10.37,2013-09-09 19:02:00,
2013-09-09 14:07:00,89.2,74.0,29.99,SSE,158,12.8,12.8,61,0.00,CLR,,0.00,WeatherDisplay:10.37,2013-09-09 19:07:00,
2013-09-09 14:12:00,89.2,73.5,30.00,SSE,158,9.2,9.2,60,0.00,CLR,,0.00,WeatherDisplay:10.37,2013-09-09 19:12:00,
2013-09-09 14:17:00,89.2,74.0,29.99,South,180,0.0,0.0,61,0.00,CLR,,0.00,WeatherDisplay:10.37,2013-09-09 19:17:00,
2013-09-09 14:22:00,89.2,74.0,29.99,SSE,158,5.8,10.9,61,0.00,CLR,,0.00,WeatherDisplay:10.37,2013-09-09 19:22:00,
2013-09-09 14:27:00,89.2,74.0,29.99,SSE,158,8.1,8.1,61,0.00,CLR,,0.00,WeatherDisplay:10.37,2013-09-09 19:27:00,
2013-09-09 14:32:00,89.4,74.2,29.99,SSE,158,5.8,11.4,61,0.00,CLR,,0.00,WeatherDisplay:10.37,2013-09-09 19:32:00,
2013-09-09 14:37:00,89.2,74.5,29.99,South,180,3.5,3.5,62,0.00,CLR,,0.00,WeatherDisplay:10.37,2013-09-09 19:37:00,
2013-09-09 14:42:00,89.2,74.5,29.99,SSE,158,0.0,0.0,62,0.00,CLR,,0.00,WeatherDisplay:10.37,2013-09-09 19:42:00,
2013-09-09 14:47:00,89.2,75.5,29.99,SSE,158,0.0,0.0,64,0.00,CLR,,0.00,WeatherDisplay:10.37,2013-09-09 19:47:00,
2013-09-09 14:52:00,89.1,75.3,29.99,SSE,158,0.0,0.5,64,0.00,CLR,,0.00,WeatherDisplay:10.37,2013-09-09 19:52:00,
2013-09-09 14:57:00,88.7,74.0,29.99,SE,135,0.0,0.0,62,0.00,CLR,,0.00,WeatherDisplay:10.37,2013-09-09 19:57:00,
2013-09-09 15:02:00,88.3,73.7,29.99,SE,135,0.0,0.0,62,0.00,CLR,,0.00,WeatherDisplay:10.37,2013-09-09 20:02:00,
2013-09-09 15:07:00,88.2,73.5,29.99,SSE,158,0.0,0.0,62,0.00,CLR,,0.00,WeatherDisplay:10.37,2013-09-09 20:07:00,
2013-09-09 15:12:00,87.8,74.6,29.99,SE,135,0.0,0.0,65,0.00,CLR,,0.00,WeatherDisplay:10.37,2013-09-09 20:12:00,
2013-09-09 15:17:00,87.4,74.7,29.98,SSE,158,0.0,0.0,66,0.00,CLR,,0.00,WeatherDisplay:10.37,2013-09-09 20:17:00,
2013-09-09 15:22:00,87.4,75.1,29.98,SE,135,0.0,0.0,67,0.00,CLR,,0.00,WeatherDisplay:10.37,2013-09-09 20:22:00,
2013-09-09 15:27:00,87.1,74.8,29.98,SSE,158,0.0,0.0,67,0.00,CLR,,0.00,WeatherDisplay:10.37,2013-09-09 20:27:00,
2013-09-09 15:32:00,87.4,73.8,29.98,SSW,202,6.2,12.3,64,0.00,CLR,,0.00,WeatherDisplay:10.37,2013-09-09 20:32:00,
2013-09-09 15:37:00,87.6,73.0,29.98,SSE,158,4.9,0.0,62,0.00,CLR,,0.00,WeatherDisplay:10.37,2013-09-09 20:37:00,
2013-09-09 15:42:00,88.0,73.3,29.98,South,180,0.0,0.0,62,0.00,CLR,,0.00,WeatherDisplay:10.37,2013-09-09 20:42:00,
2013-09-09 15:47:00,88.3,73.2,29.98,SW,225,7.1,14.0,61,0.00,CLR,,0.00,WeatherDisplay:10.37,2013-09-09 20:47:00,
2013-09-09 15:52:00,88.3,73.2,29.97,South,180,5.8,6.0,61,0.00,CLR,,0.00,WeatherDisplay:10.37,2013-09-09 20:52:00,
2013-09-09 15:57:00,88.5,73.3,29.97,South,180,5.8,5.8,61,0.00,CLR,,0.00,WeatherDisplay:10.37,2013-09-09 20:57:00,
2013-09-09 16:03:00,88.5,73.3,29.97,SSE,158,11.9,0.0,61,0.00,CLR,,0.00,WeatherDisplay:10.37,2013-09-09 21:03:00,
2013-09-09 16:08:00,88.7,73.0,29.97,South,180,5.8,5.8,60,0.00,CLR,,0.00,WeatherDisplay:10.37,2013-09-09 21:08:00,
2013-09-09 16:13:00,88.7,73.0,29.97,SSE,158,0.0,0.0,60,0.00,CLR,,0.00,WeatherDisplay:10.37,2013-09-09 21:13:00,
2013-09-09 16:18:00,88.7,73.0,29.97,SSW,202,1.2,1.6,60,0.00,CLR,,0.00,WeatherDisplay:10.37,2013-09-09 21:18:00,
2013-09-09 16:23:00,88.7,73.0,29.97,South,180,5.8,9.6,60,0.00,CLR,,0.00,WeatherDisplay:10.37,2013-09-09 21:23:00,
2013-09-09 16:28:00,88.7,73.0,29.97,SSE,158,6.2,12.3,60,0.00,CLR,,0.00,WeatherDisplay:10.37,2013-09-09 21:28:00,
2013-09-09 16:33:00,88.7,73.0,29.97,SSE,158,11.1,11.1,60,0.00,CLR,,0.00,WeatherDisplay:10.37,2013-09-09 21:33:00,
2013-09-09 16:38:00,88.5,72.9,29.97,SSE,158,0.9,0.9,60,0.00,CLR,,0.00,WeatherDisplay:10.37,2013-09-09 21:38:00,
2013-09-09 16:43:00,88.5,72.9,29.97,SSW,202,6.2,10.7,60,0.00,CLR,,0.00,WeatherDisplay:10.37,2013-09-09 21:43:00,
2013-09-09 16:48:00,88.3,72.7,29.97,SSW,202,0.0,0.0,60,0.00,CLR,,0.00,WeatherDisplay:10.37,2013-09-09 21:48:00,
2013-09-09 16:53:00,88.3,72.7,29.97,SSW,202,3.5,7.1,60,0.00,CLR,,0.00,WeatherDisplay:10.37,2013-09-09 21:53:00,
2013-09-09 16:58:00,88.2,72.5,29.97,South,180,0.0,0.0,60,0.00,CLR,,0.00,WeatherDisplay:10.37,2013-09-09 21:58:00,
2013-09-09 17:03:00,88.0,72.4,29.97,SSE,158,2.3,4.4,60,0.00,CLR,,0.00,WeatherDisplay:10.37,2013-09-09 22:03:00,
2013-09-09 17:08:00,87.6,72.0,29.97,South,180,4.4,4.4,60,0.00,CLR,,0.00,WeatherDisplay:10.37,2013-09-09 22:08:00,
2013-09-09 17:13:00,87.6,72.0,29.97,South,180,0.0,0.0,60,0.00,CLR,,0.00,WeatherDisplay:10.37,2013-09-09 22:13:00,
2013-09-09 17:18:00,87.6,72.5,29.97,South,180,0.0,0.8,61,0.00,CLR,,0.00,WeatherDisplay:10.37,2013-09-09 22:18:00,
2013-09-09 17:23:00,87.4,72.3,29.97,SSE,158,3.5,3.6,61,0.00,CLR,,0.00,WeatherDisplay:10.37,2013-09-09 22:23:00,
2013-09-09 17:28:00,87.4,72.8,29.97,South,180,0.0,0.0,62,0.00,CLR,,0.00,WeatherDisplay:10.37,2013-09-09 22:28:00,
2013-09-09 17:33:00,87.1,72.5,29.97,SSW,202,0.0,0.0,62,0.00,CLR,,0.00,WeatherDisplay:10.37,2013-09-09 22:33:00,
2013-09-09 17:38:00,87.1,72.5,29.97,SSW,202,0.0,0.0,62,0.00,CLR,,0.00,WeatherDisplay:10.37,2013-09-09 22:38:00,
2013-09-09 17:43:00,86.9,72.3,29.97,South,180,0.0,0.0,62,0.00,CLR,,0.00,WeatherDisplay:10.37,2013-09-09 22:43:00,
2013-09-09 17:48:00,86.9,72.8,29.97,SSW,202,0.0,0.0,63,0.00,CLR,,0.00,WeatherDisplay:10.37,2013-09-09 22:48:00,
2013-09-09 17:53:00,86.7,73.1,29.97,SSW,202,0.0,0.0,64,0.00,CLR,,0.00,WeatherDisplay:10.37,2013-09-09 22:53:00,
2013-09-09 17:58:00,86.5,73.4,29.97,SSW,202,0.0,0.0,65,0.00,CLR,,0.00,WeatherDisplay:10.37,2013-09-09 22:58:00,
2013-09-09 18:03:00,86.2,73.5,29.97,SSW,202,0.0,0.0,66,0.00,CLR,,0.00,WeatherDisplay:10.37,2013-09-09 23:03:00,
2013-09-09 18:08:00,86.2,73.9,29.97,SSW,202,0.0,0.0,67,0.00,CLR,,0.00,WeatherDisplay:10.37,2013-09-09 23:08:00,
2013-09-09 18:13:00,85.8,74.0,29.97,SSW,202,0.0,0.0,68,0.00,CLR,,0.00,WeatherDisplay:10.37,2013-09-09 23:13:00,
2013-09-09 18:18:00,85.6,73.9,29.97,SSW,202,0.0,0.0,68,0.00,CLR,,0.00,WeatherDisplay:10.37,2013-09-09 23:18:00,
2013-09-09 18:23:00,85.3,73.5,29.97,SSW,202,0.0,0.0,68,0.00,CLR,,0.00,WeatherDisplay:10.37,2013-09-09 23:23:00,
2013-09-09 18:28:00,85.1,73.8,29.97,SSW,202,0.0,0.0,69,0.00,CLR,,0.00,WeatherDisplay:10.37,2013-09-09 23:28:00,
2013-09-09 18:33:00,84.7,73.9,29.97,SSW,202,0.0,0.0,70,0.00,CLR,,0.00,WeatherDisplay:10.37,2013-09-09 23:33:00,
2013-09-09 18:38:00,84.6,73.7,29.97,SSW,202,0.0,0.0,70,0.00,CLR,,0.00,WeatherDisplay:10.37,2013-09-09 23:38:00,
2013-09-09 18:43:00,84.4,73.5,29.98,SSW,202,0.0,0.0,70,0.00,CLR,,0.00,WeatherDisplay:10.37,2013-09-09 23:43:00,
2013-09-09 18:48:00,84.0,73.6,29.98,SSW,202,0.0,0.0,71,0.00,CLR,,0.00,WeatherDisplay:10.37,2013-09-09 23:48:00,
2013-09-09 18:53:00,83.8,73.8,29.98,SSW,202,0.0,0.0,72,0.00,CLR,,0.00,WeatherDisplay:10.37,2013-09-09 23:53:00,
2013-09-09 18:58:00,83.5,73.5,29.98,SSW,202,0.0,0.0,72,0.00,CLR,,0.00,WeatherDisplay:10.37,2013-09-09 23:58:00,
2013-09-09 19:03:00,83.1,73.6,29.98,SSW,202,0.0,0.0,73,0.00,CLR,,0.00,WeatherDisplay:10.37,2013-09-10 00:03:00,
2013-09-09 19:08:00,82.8,73.6,29.97,SSW,202,0.0,0.0,74,0.00,CLR,,0.00,WeatherDisplay:10.37,2013-09-10 00:08:00,
2013-09-09 19:13:00,82.6,73.4,29.98,SSW,202,0.0,0.0,74,0.00,CLR,,0.00,WeatherDisplay:10.37,2013-09-10 00:13:00,
2013-09-09 19:18:00,82.0,73.3,29.97,SSW,202,0.0,0.0,75,0.00,CLR,,0.00,WeatherDisplay:10.37,2013-09-10 00:18:00,
2013-09-09 19:23:00,81.9,73.2,29.98,SSW,202,0.0,0.0,75,0.00,CLR,,0.00,WeatherDisplay:10.37,2013-09-10 00:23:00,
2013-09-09 19:28:00,81.7,73.4,29.98,SSW,202,0.0,0.0,76,0.00,CLR,,0.00,WeatherDisplay:10.37,2013-09-10 00:28:00,
2013-09-09 19:33:00,81.3,73.4,29.99,SSW,202,0.0,0.0,77,0.00,CLR,,0.00,WeatherDisplay:10.37,2013-09-10 00:33:00,
2013-09-09 19:38:00,81.1,73.2,29.98,SSW,202,0.0,0.0,77,0.00,CLR,,0.00,WeatherDisplay:10.37,2013-09-10 00:38:00,
2013-09-09 19:43:00,80.8,72.9,29.99,SSW,202,0.0,0.0,77,0.00,CLR,,0.00,WeatherDisplay:10.37,2013-09-10 00:43:00,
2013-09-09 19:48:00,80.4,72.9,29.99,SSW,202,0.0,0.0,78,0.00,CLR,,0.00,WeatherDisplay:10.37,2013-09-10 00:48:00,
2013-09-09 19:53:00,80.4,72.9,29.99,SSW,202,0.0,0.0,78,0.00,CLR,,0.00,WeatherDisplay:10.37,2013-09-10 00:53:00,
2013-09-09 19:58:00,80.2,72.8,29.99,SSW,202,0.0,0.0,78,0.00,CLR,,0.00,WeatherDisplay:10.37,2013-09-10 00:58:00,
2013-09-09 20:03:00,79.9,72.8,29.99,SSW,202,0.0,0.0,79,0.00,CLR,,0.00,WeatherDisplay:10.37,2013-09-10 01:03:00,
2013-09-09 20:08:00,79.9,72.8,29.99,SSW,202,0.0,0.0,79,0.00,CLR,,0.00,WeatherDisplay:10.37,2013-09-10 01:08:00,
2013-09-09 20:13:00,79.7,72.6,29.99,SSW,202,0.0,0.0,79,0.00,CLR,,0.00,WeatherDisplay:10.37,2013-09-10 01:13:00,
2013-09-09 20:18:00,79.5,72.4,29.99,SSW,202,0.0,0.0,79,0.00,CLR,,0.00,WeatherDisplay:10.37,2013-09-10 01:18:00,
2013-09-09 20:23:00,79.3,72.3,30.00,SSW,202,0.0,0.0,79,0.00,CLR,,0.00,WeatherDisplay:10.37,2013-09-10 01:23:00,
2013-09-09 20:28:00,79.0,72.3,30.00,SSW,202,0.0,0.0,80,0.00,CLR,,0.00,WeatherDisplay:10.37,2013-09-10 01:28:00,
2013-09-09 20:33:00,78.6,72.3,30.00,SSW,202,0.0,0.0,81,0.00,CLR,,0.00,WeatherDisplay:10.37,2013-09-10 01:33:00,
2013-09-09 20:38:00,78.6,72.3,30.00,SSW,202,0.0,0.0,81,0.00,CLR,,0.00,WeatherDisplay:10.37,2013-09-10 01:38:00,
2013-09-09 20:43:00,78.4,72.5,30.00,SSW,202,0.0,0.0,82,0.00,CLR,,0.00,WeatherDisplay:10.37,2013-09-10 01:43:00,
2013-09-09 20:48:00,78.1,72.5,30.00,SSW,202,0.0,0.0,83,0.00,CLR,,0.00,WeatherDisplay:10.37,2013-09-10 01:48:00,
2013-09-09 20:53:00,78.1,72.5,30.01,SSW,202,0.0,0.0,83,0.00,CLR,,0.00,WeatherDisplay:10.37,2013-09-10 01:53:00,
2013-09-09 20:58:00,77.7,72.1,30.00,SSW,202,0.0,0.0,83,0.00,CLR,,0.00,WeatherDisplay:10.37,2013-09-10 01:58:00,
2013-09-09 21:03:00,77.7,72.5,30.00,SSW,202,0.0,0.0,84,0.00,CLR,,0.00,WeatherDisplay:10.37,2013-09-10 02:03:00,
2013-09-09 21:08:00,77.5,72.0,30.00,SSW,202,0.0,0.0,83,0.00,CLR,,0.00,WeatherDisplay:10.37,2013-09-10 02:08:00,
2013-09-09 21:13:00,77.5,72.3,30.01,SSW,202,0.0,0.0,84,0.00,CLR,,0.00,WeatherDisplay:10.37,2013-09-10 02:13:00,
2013-09-09 21:18:00,77.5,72.0,30.01,SSW,202,0.0,0.0,83,0.00,CLR,,0.00,WeatherDisplay:10.37,2013-09-10 02:18:00,
2013-09-09 21:23:00,77.4,71.8,30.01,SSW,202,0.0,0.0,83,0.00,CLR,,0.00,WeatherDisplay:10.37,2013-09-10 02:23:00,
2013-09-09 21:28:00,77.4,71.8,30.02,SSW,202,0.0,0.0,83,0.00,CLR,,0.00,WeatherDisplay:10.37,2013-09-10 02:28:00,
2013-09-09 21:33:00,77.2,71.6,30.02,SSW,202,0.0,0.0,83,0.00,CLR,,0.00,WeatherDisplay:10.37,2013-09-10 02:33:00,
2013-09-09 21:38:00,77.2,71.6,30.02,SSW,202,0.0,0.0,83,0.00,CLR,,0.00,WeatherDisplay:10.37,2013-09-10 02:38:00,
2013-09-09 21:43:00,77.2,72.0,30.02,SSW,202,0.0,0.0,84,0.00,CLR,,0.00,WeatherDisplay:10.37,2013-09-10 02:43:00,
2013-09-09 21:48:00,77.0,71.8,30.02,SSW,202,0.0,0.0,84,0.00,CLR,,0.00,WeatherDisplay:10.37,2013-09-10 02:48:00,
2013-09-09 21:53:00,76.8,72.0,30.02,SSW,202,0.0,0.0,85,0.00,CLR,,0.00,WeatherDisplay:10.37,2013-09-10 02:53:00,
2013-09-09 21:58:00,76.6,71.8,30.02,SSW,202,0.0,0.0,85,0.00,CLR,,0.00,WeatherDisplay:10.37,2013-09-10 02:58:00,
2013-09-09 22:03:00,76.5,71.6,30.02,SSW,202,0.0,0.0,85,0.00,CLR,,0.00,WeatherDisplay:10.37,2013-09-10 03:03:00,
2013-09-09 22:08:00,76.5,72.0,30.01,SSW,202,0.0,0.0,86,0.00,CLR,,0.00,WeatherDisplay:10.37,2013-09-10 03:08:00,
2013-09-09 22:13:00,76.3,71.8,30.02,SSW,202,0.0,0.0,86,0.00,CLR,,0.00,WeatherDisplay:10.37,2013-09-10 03:13:00,
2013-09-09 22:18:00,76.3,71.8,30.02,SSW,202,0.0,0.0,86,0.00,CLR,,0.00,WeatherDisplay:10.37,2013-09-10 03:18:00,
2013-09-09 22:23:00,76.1,71.6,30.02,SSW,202,0.0,0.0,86,0.00,CLR,,0.00,WeatherDisplay:10.37,2013-09-10 03:23:00,
2013-09-09 22:28:00,76.1,71.6,30.02,SSW,202,0.0,0.0,86,0.00,CLR,,0.00,WeatherDisplay:10.37,2013-09-10 03:28:00,
2013-09-09 22:33:00,76.1,71.9,30.02,SSW,202,0.0,0.0,87,0.00,CLR,,0.00,WeatherDisplay:10.37,2013-09-10 03:33:00,
2013-09-09 22:38:00,75.9,71.8,30.01,SSW,202,0.0,0.0,87,0.00,CLR,,0.00,WeatherDisplay:10.37,2013-09-10 03:38:00,
2013-09-09 22:43:00,75.9,71.8,30.02,SSW,202,0.0,0.0,87,0.00,CLR,,0.00,WeatherDisplay:10.37,2013-09-10 03:43:00,
2013-09-09 22:48:00,75.9,71.4,30.02,SSW,202,0.0,0.0,86,0.00,CLR,,0.00,WeatherDisplay:10.37,2013-09-10 03:48:00,
2013-09-09 22:53:00,75.9,71.4,30.02,SSW,202,0.0,0.0,86,0.00,CLR,,0.00,WeatherDisplay:10.37,2013-09-10 03:53:00,
2013-09-09 22:58:00,75.7,71.6,30.02,SSW,202,0.0,0.0,87,0.00,CLR,,0.00,WeatherDisplay:10.37,2013-09-10 03:58:00,
2013-09-09 23:01:00,75.6,71.4,30.02,SSW,202,0.0,0.0,87,0.00,CLR,,0.00,WeatherDisplay:10.37,2013-09-10 04:01:00,
2013-09-09 23:02:00,75.6,71.4,30.02,SSW,202,0.0,0.0,87,0.00,CLR,,0.00,WeatherDisplay:10.37,2013-09-10 04:02:00,
2013-09-09 23:04:00,75.4,71.2,30.02,SSW,202,0.0,0.0,87,0.00,CLR,,0.00,WeatherDisplay:10.37,2013-09-10 04:04:00,
2013-09-09 23:08:00,75.4,71.2,30.01,SSW,202,0.0,0.0,87,0.00,CLR,,0.00,WeatherDisplay:10.37,2013-09-10 04:08:00,
2013-09-09 23:13:00,75.0,71.2,30.01,SSW,202,0.0,0.0,88,0.00,CLR,,0.00,WeatherDisplay:10.37,2013-09-10 04:13:00,
2013-09-09 23:16:00,75.0,71.2,30.01,SSW,202,0.0,0.0,88,0.00,CLR,,0.00,WeatherDisplay:10.37,2013-09-10 04:16:00,
2013-09-09 23:21:00,75.0,71.2,30.02,SSW,202,0.0,0.0,88,0.00,CLR,,0.00,WeatherDisplay:10.37,2013-09-10 04:21:00,
2013-09-09 23:26:00,75.0,71.2,30.01,SSW,204,0.0,0.0,88,0.00,CLR,,0.00,WeatherDisplay:10.37,2013-09-10 04:26:00,
2013-09-09 23:31:00,75.0,71.2,30.01,SSW,202,0.0,0.0,88,0.00,CLR,,0.00,WeatherDisplay:10.37,2013-09-10 04:31:00,
2013-09-09 23:36:00,75.0,71.2,30.01,SSW,202,0.0,0.0,88,0.00,CLR,,0.00,WeatherDisplay:10.37,2013-09-10 04:36:00,
2013-09-09 23:41:00,75.0,71.2,30.01,SSW,202,0.0,0.0,88,0.00,CLR,,0.00,WeatherDisplay:10.37,2013-09-10 04:41:00,
2013-09-09 23:46:00,74.8,71.0,30.01,SSW,202,0.0,0.0,88,0.00,CLR,,0.00,WeatherDisplay:10.37,2013-09-10 04:46:00,
2013-09-09 23:51:00,75.0,71.2,30.01,SSW,202,0.0,0.0,88,0.00,CLR,,0.00,WeatherDisplay:10.37,2013-09-10 04:51:00,
2013-09-09 23:56:00,75.0,71.2,30.01,SSW,202,0.0,0.0,88,0.00,CLR,,0.00,WeatherDisplay:10.37,2013-09-10 04:56:00,